一网星座-0578星 (ONEWEB-0578)

导读 | 豆包AI

ONEWEB-0578是英国OneWeb公司的近地轨道互联网卫星,于北京时间2023年3月26日由印度LVM3 M3火箭发射升空,进入倾角87.4度、高度约450公里的预定轨道。该卫星属于OneWeb第一代低轨互联网星座组网卫星,此次发射共完成36颗OneWeb卫星部署,标志着OneWeb第一代卫星星座组网全面完成,为后续推出全球卫星互联网接入服务奠定硬件基础。ONEWEB-0578主要提供宽带互联网接入服务,面向企业、交通和政府等领域,是OneWeb实现全球覆盖的重要组成部分。

Basic Information
目录编号:
56067
目录名称:
ONEWEB-0578
国际标识:
2023-043X
轨道中心:
EARTH
卫星名称:
一网星座-0578星
卫星全名:
一网星座-0578星 (ONEWEB-0578)
卫星状态:
在轨 (已飞行1084 天)
发射日期:
2023-03-26 UTC
国别 :
英国 (GB)
星等 :
--
Orbit Information
数据来源 国际轨道数据 AOE轨道数据
星历时间 2026-03-14T06:52:09+0800
9小时前
查看轨道信息
2026-03-14T02:00:00+0800
14小时前
查看轨道信息
半长轴 7555.898km 7555.897km
偏心率 0.0001625 0.0001638
轨道倾角 87.916° 87.912°
近地点辐角 82.602° 77.732°
升交点赤经 262.959° 262.997°
平近点角 277.530° 37.547°
近地点 1176.533km 1176.522km
远地点 1178.989km 1178.998km
周期 108.940分钟 108.940分钟
每日圈数 13.218241 13.218244
Detailed Information
平衡模式:
三轴稳定
覆盖范围:
全球
运营商:
一网卫星公司
运营商所在国:
英国
制造商(研发单位):
一网卫星公司
制造商所在国:
英国
使用方式:
暂无
Satellite Introduction
OneWeb卫星网络由648颗重约125公斤的微型卫星组成,运行在1200公里的轨道上。 每颗卫星都能够提供至少每秒8千兆位的吞吐量,以使用其高吞吐量的Ku频段有效载荷为家庭和移动平台提供互联网接入。该卫星仍在工作。
2D Orbit Map
3D Orbit Map
Orbit Altitude Analysis Chart
Orbit Inclination Analysis Chart
Orbit Comprehensive Analysis Chart
View Comprehensive Chart